Temperature
14 13 12 10 9 7 5 4 3 2 1 0 -0 -1 -1 -2 -3 -4 -4 -5 -6 -6 -7 -8 -8 -8 -9 -9 -9 -10 -10 -11 -12 -11 -11 -10 -10 -10 -10 -10 -10 -10 -9
14 13 12 10 9 7 6 4 3 2 1 0 -0 -1 -1 -2 -3 -4 -4 -5 -6 -6 -7 -8 -8 -8 -9 -9 -9 -10 -10 -11 -11 -11 -11 -11 -10 -10 -10 -11 -11 -11 -10
13 13 11 10 9 8 6 4 3 2 1 0 -1 -1 -2 -2 -3 -3 -4 -5 -6 -6 -7 -8 -8 -9 -9 -9 -9 -10 -10 -10 -10 -11 -11 -11 -11 -11 -11 -11 -11 -11 -10
13 12 12 11 9 8 6 4 3 2 1 0 -1 -1 -2 -2 -3 -4 -4 -5 -6 -6 -7 -8 -8 -9 -9 -9 -9 -9 -9 -9 -10 -10 -10 -11 -11 -11 -11 -11 -12 -11 -11
13 12 12 10 9 7 5 4 2 1 1 -0 -1 -1 -2 -2 -3 -4 -4 -5 -6 -7 -7 -8 -8 -9 -9 -9 -9 -9 -9 -9 -9 -10 -10 -10 -11 -11 -11 -12 -12 -12 -11
13 12 11 10 8 6 5 3 2 1 0 -1 -1 -2 -2 -2 -3 -4 -5 -6 -6 -7 -7 -8 -8 -9 -9 -9 -9 -9 -9 -9 -9 -10 -10 -11 -11 -11 -12 -12 -12 -12 -12
12 12 11 9 8 6 4 2 1 0 -0 -1 -1 -2 -2 -2 -3 -4 -5 -6 -7 -7 -8 -8 -8 -9 -9 -9 -9 -9 -9 -9 -10 -10 -11 -11 -11 -11 -12 -12 -12 -12 -12
12 11 10 9 7 5 3 2 1 0 -0 -1 -1 -2 -2 -3 -3 -4 -5 -6 -7 -7 -8 -8 -8 -9 -9 -9 -9 -9 -9 -9 -10 -10 -11 -11 -11 -11 -11 -11 -12 -12 -12
11 10 9 8 6 5 3 2 1 0 -0 -1 -1 -2 -2 -3 -3 -4 -5 -6 -6 -7 -7 -8 -8 -9 -9 -9 -9 -9 -9 -9 -10 -10 -11 -11 -11 -12 -12 -12 -12 -13 -12
10 9 8 7 6 4 3 2 0 -0 -1 -1 -2 -2 -3 -3 -4 -4 -5 -6 -6 -7 -7 -8 -8 -9 -9 -9 -9 -9 -9 -9 -10 -10 -10 -11 -11 -12 -12 -12 -13 -13 -13
8 8 7 6 5 4 2 1 -0 -1 -1 -2 -2 -2 -3 -3 -4 -4 -5 -6 -6 -7 -8 -8 -8 -9 -9 -9 -9 -9 -10 -10 -10 -10 -10 -11 -11 -11 -12 -12 -12 -13 -13
7 7 6 5 4 2 1 0 -1 -1 -2 -2 -2 -3 -3 -4 -4 -4 -5 -6 -7 -8 -8 -8 -8 -9 -9 -9 -9 -10 -10 -10 -10 -11 -11 -11 -11 -11 -12 -12 -12 -12 -12
6 6 6 4 3 1 -0 -1 -2 -2 -2 -3 -3 -3 -3 -4 -4 -4 -5 -6 -7 -8 -8 -8 -9 -9 -9 -9 -9 -10 -10 -10 -11 -11 -11 -11 -11 -11 -11 -11 -11 -11 -11
6 5 5 3 2 0 -1 -2 -2 -2 -3 -3 -3 -3 -3 -4 -4 -4 -5 -6 -7 -7 -8 -8 -9 -9 -9 -9 -9 -9 -10 -10 -11 -11 -11 -11 -11 -11 -11 -11 -11 -11 -11
5 4 3 2 0 -1 -2 -2 -2 -2 -2 -2 -2 -3 -3 -4 -4 -5 -5 -6 -7 -7 -8 -8 -8 -9 -9 -9 -9 -9 -10 -10 -11 -11 -11 -11 -11 -11 -11 -11 -11 -11 -11
4 3 2 1 -1 -2 -3 -3 -4 -3 -3 -3 -3 -3 -4 -4 -4 -5 -5 -6 -7 -8 -9 -8 -8 -9 -9 -9 -9 -9 -10 -10 -11 -11 -11 -11 -11 -11 -11 -11 -11 -11 -11
3 2 1 -0 -1 -3 -4 -4 -4 -4 -4 -4 -4 -4 -4 -4 -4 -5 -6 -7 -7 -8 -8 -8 -9 -9 -9 -9 -10 -10 -10 -10 -11 -11 -11 -11 -11 -12 -11 -11 -11 -11 -11
2 2 1 -0 -2 -3 -4 -5 -5 -5 -5 -4 -4 -4 -4 -4 -5 -5 -6 -7 -7 -8 -8 -8 -8 -9 -9 -9 -10 -10 -10 -10 -11 -11 -11 -11 -11 -11 -11 -11 -11 -11 -11
1 1 -0 -1 -3 -4 -5 -6 -6 -6 -5 -5 -4 -4 -4 -5 -5 -6 -6 -7 -7 -7 -8 -8 -8 -9 -9 -10 -10 -10 -10 -10 -11 -11 -11 -11 -11 -11 -11 -11 -11 -11 -11
0 -0 -1 -2 -3 -5 -6 -7 -7 -7 -6 -5 -5 -4 -4 -5 -6 -6 -6 -6 -7 -7 -7 -8 -8 -9 -9 -9 -10 -10 -10 -10 -11 -11 -11 -11 -11 -11 -11 -11 -11 -11 -10
-1 -1 -2 -3 -4 -5 -6 -7 -7 -7 -7 -6 -5 -4 -4 -4 -5 -5 -6 -6 -6 -7 -7 -8 -8 -9 -9 -9 -10 -10 -10 -10 -11 -11 -11 -11 -11 -11 -11 -11 -11 -11 -10
-1 -1 -2 -3 -5 -6 -6 -7 -7 -7 -7 -6 -6 -5 -5 -5 -5 -5 -5 -6 -7 -7 -8 -8 -8 -9 -9 -9 -10 -10 -10 -10 -11 -11 -11 -11 -11 -11 -11 -11 -11 -11 -10
-2 -2 -3 -4 -5 -6 -7 -7 -8 -7 -7 -7 -6 -5 -5 -5 -5 -5 -5 -6 -7 -7 -8 -8 -8 -9 -9 -9 -10 -10 -10 -10 -11 -11 -11 -11 -11 -11 -11 -11 -11 -11 -10
-2 -3 -3 -4 -5 -6 -7 -8 -8 -8 -7 -7 -6 -5 -5 -5 -5 -5 -6 -6 -7 -7 -8 -8 -8 -9 -9 -9 -10 -10 -10 -10 -11 -11 -11 -11 -11 -11 -11 -11 -11 -11 -10
-3 -3 -4 -5 -6 -7 -7 -8 -8 -8 -7 -7 -6 -5 -5 -5 -5 -5 -6 -6 -7 -7 -8 -8 -8 -9 -9 -9 -10 -10 -10 -10 -11 -11 -11 -11 -11 -11 -11 -11 -11 -11 -10
-3 -4 -4 -5 -6 -7 -7 -8 -8 -7 -7 -7 -6 -5 -5 -5 -5 -6 -6 -6 -7 -7 -8 -8 -9 -9 -9 -10 -10 -10 -10 -10 -11 -11 -11 -11 -11 -11 -11 -11 -11 -10 -10
Wind_Speed
18 18 18 17 17 16 16 16 15 13 13 13 12 11 11 11 10 10 10 9 11 11 11 11 14 13 11 11 11 12 13 13 18 18 14 13 13 14 16 18 20 19 20
15 16 18 16 16 17 18 17 15 14 14 13 12 12 11 11 10 11 11 11 11 12 12 12 14 12 13 12 12 14 14 14 16 21 17 14 14 13 14 14 14 16 15
13 15 16 17 18 20 19 17 15 15 14 13 12 12 12 11 11 11 11 11 11 12 13 13 14 13 15 13 14 14 14 15 15 17 18 15 13 12 13 14 14 12 15
14 16 18 20 20 19 17 16 16 16 15 14 14 13 12 11 11 10 10 11 12 13 13 13 14 14 15 15 15 16 15 15 15 15 16 15 13 10 10 12 13 11 12
15 18 20 18 16 15 16 16 15 15 15 14 13 12 11 10 10 11 11 12 12 13 13 13 13 17 20 18 15 13 13 12 12 14 14 14 13 11 11 11 13 13 11
16 18 16 14 15 16 16 15 15 15 13 13 13 12 11 10 15 18 14 11 12 12 12 11 12 15 19 24 26 25 22 15 14 13 13 14 15 13 12 12 13 13 12
16 16 15 15 16 16 16 16 16 15 14 13 12 12 12 13 18 19 20 12 10 10 10 10 10 11 17 11 20 24 20 23 22 15 15 15 16 14 14 16 14 14 14
14 15 14 15 16 15 15 16 16 13 14 13 13 12 11 13 18 18 19 12 8 9 9 9 10 11 13 15 14 11 11 12 16 12 12 14 14 13 13 14 14 13 13
13 15 15 15 16 16 17 17 15 13 13 13 11 12 12 13 17 17 17 7 8 9 9 9 10 10 19 23 14 10 10 10 15 19 20 19 23 23 18 11 9 10 12
14 14 13 14 16 17 17 16 13 13 13 12 12 12 12 11 14 16 17 7 8 8 8 9 14 15 20 21 11 8 11 11 9 10 13 16 14 15 18 10 8 9 9
10 10 11 13 15 15 14 12 12 13 12 12 12 10 11 12 13 16 17 8 8 8 8 6 7 17 20 20 17 9 14 14 6 8 9 10 9 8 8 8 8 9 10
8 9 11 12 12 12 12 12 12 13 13 12 10 9 9 10 13 14 17 16 13 8 7 6 8 17 18 18 14 15 20 15 7 8 9 9 9 9 9 9 10 10 11
9 9 9 10 11 11 12 13 12 12 11 11 10 10 9 8 10 17 17 16 15 9 7 11 14 16 15 11 14 17 14 8 8 9 10 10 9 9 9 8 9 9 10
10 9 8 9 10 10 11 12 12 13 12 11 11 10 9 7 8 7 7 8 11 9 7 9 13 13 11 11 11 10 7 7 9 9 10 10 9 8 9 8 8 8 8
10 9 8 9 9 11 12 12 14 14 15 14 12 11 10 9 11 15 10 8 7 8 6 3 2 3 5 5 6 7 6 7 8 8 9 10 10 10 10 8 7 7 7
9 8 7 7 8 9 10 10 19 17 21 22 18 14 11 12 13 15 15 14 13 11 6 2 3 4 5 6 7 8 8 8 8 9 9 10 10 10 11 9 8 8 8
10 9 7 8 9 10 10 11 10 14 20 21 21 20 16 15 15 14 14 12 11 9 4 3 4 5 5 6 7 8 8 8 8 8 9 9 10 10 10 10 9 9 9
10 12 10 8 9 9 10 10 10 10 11 11 16 21 20 18 16 15 13 9 5 4 3 4 5 5 5 6 7 8 8 8 8 8 8 9 9 9 10 10 10 10 10
9 8 8 7 8 9 10 10 9 10 10 9 6 11 19 17 17 15 12 5 5 5 5 5 5 5 5 6 7 7 8 8 9 8 8 9 8 9 9 10 10 14 12
9 13 11 8 8 9 9 10 10 10 10 9 10 10 9 9 7 7 6 5 5 5 5 5 5 5 5 5 6 7 7 8 8 8 8 8 8 8 9 10 10 10 10
8 9 13 10 8 9 9 10 10 9 9 10 9 12 16 10 9 8 7 6 6 6 5 5 5 5 5 5 6 7 8 8 8 8 7 7 8 8 8 9 10 10 10
8 7 7 7 7 8 9 9 9 9 10 9 7 10 19 10 8 7 7 7 6 5 5 4 4 4 5 5 6 7 8 8 8 7 7 7 8 8 8 9 9 10 10
7 8 8 7 7 11 11 9 9 9 9 9 8 8 9 9 8 7 7 6 5 5 4 4 4 4 5 5 6 7 7 8 8 7 7 8 8 8 8 9 10 11 11
7 8 8 7 7 8 8 9 9 10 9 9 9 9 8 8 8 8 7 6 5 4 4 4 4 6 7 6 6 6 7 9 8 6 7 7 8 8 8 9 10 11 11
7 7 7 7 7 8 8 9 9 9 9 9 9 8 8 7 7 7 6 6 6 5 5 4 4 5 7 8 8 8 12 14 10 5 4 5 7 8 8 9 9 11 11
7 7 7 6 7 7 8 8 9 9 9 8 8 8 8 8 7 7 6 6 5 4 4 4 4 5 7 7 9 12 13 11 9 8 4 4 6 7 8 7 10 10 11
Wind_Direction
211 211 213 211 209 207 208 208 205 201 199 202 204 209 215 221 222 226 235 238 244 252 254 255 259 261 264 266 264 263 262 262 274 283 283 282 277 279 285 285 285 285 288
212 210 214 211 206 208 212 209 203 201 200 202 203 209 217 222 222 226 238 243 243 251 256 258 262 265 265 267 268 267 266 263 268 279 283 282 278 278 280 281 287 288 286
208 211 213 212 210 212 212 207 202 201 200 201 203 210 217 221 224 229 234 243 245 249 254 256 260 264 268 269 269 270 269 268 265 271 280 283 281 279 281 283 283 282 284
209 213 217 217 215 214 211 205 202 200 199 201 205 211 215 220 226 232 235 243 248 252 254 254 257 260 265 269 271 269 269 270 269 271 277 281 283 278 277 287 291 286 285
213 218 223 220 216 212 209 206 202 200 201 200 202 209 214 219 226 230 235 242 247 253 254 254 257 264 269 276 279 278 276 277 279 279 281 286 288 290 289 288 288 290 284
218 224 224 217 213 211 209 204 200 200 199 196 201 207 214 223 238 246 248 240 243 248 254 257 261 271 279 286 290 293 292 291 292 290 290 289 290 289 289 286 286 287 288
224 228 222 216 215 212 207 203 201 199 195 197 201 206 217 228 240 251 259 258 244 244 249 258 269 273 286 284 287 290 291 291 293 292 291 288 288 287 285 282 276 274 276
230 231 223 215 216 210 205 206 204 198 196 199 201 207 217 230 240 251 260 262 250 245 248 252 261 269 276 284 280 279 272 275 282 285 278 280 283 283 277 278 279 278 274
238 235 225 216 214 209 208 207 202 196 197 198 199 204 213 229 238 248 258 250 250 251 253 255 261 265 282 292 296 287 285 284 294 298 299 300 303 305 304 300 295 290 287
247 240 228 217 214 213 212 206 199 195 198 196 202 204 210 220 233 244 253 245 250 257 257 256 273 283 290 298 298 289 292 295 294 299 302 302 299 298 301 296 285 281 282
259 245 230 220 218 217 211 202 192 192 191 195 201 205 210 219 230 240 248 238 242 255 263 258 264 288 295 301 306 299 296 309 309 300 298 296 294 288 283 274 262 259 261
260 242 231 221 216 214 205 198 191 189 189 194 199 207 215 221 226 235 243 247 251 247 255 259 269 288 298 304 309 305 311 321 315 305 304 304 305 302 295 285 272 260 251
264 249 236 220 211 204 200 197 192 191 193 194 197 208 214 210 219 231 239 247 255 254 252 270 284 296 304 308 305 309 318 316 306 306 307 305 302 296 297 294 286 274 264
268 257 236 219 211 204 202 200 198 196 196 195 197 205 209 204 207 215 226 244 252 262 273 278 289 298 301 299 304 309 306 298 303 302 303 302 304 305 305 304 303 301 291
270 258 239 223 213 208 208 209 207 207 200 196 200 198 196 206 214 209 206 218 220 235 246 239 256 286 294 296 297 296 297 302 306 304 305 309 312 313 311 310 302 301 291
274 259 240 225 215 211 212 220 224 218 216 212 207 200 205 207 209 213 220 231 241 248 249 231 258 272 283 293 300 304 305 304 305 307 307 309 312 314 314 313 310 305 300
265 261 242 228 218 213 211 213 217 220 220 217 214 209 205 204 208 214 221 231 241 250 238 235 253 266 277 287 292 296 300 302 303 304 306 309 311 312 314 315 315 313 306
267 262 250 231 220 215 214 213 211 205 204 209 214 212 208 207 209 214 220 223 227 223 206 233 249 259 269 281 289 293 298 302 303 303 304 306 309 312 313 314 314 312 309
273 265 252 235 222 217 214 212 210 209 207 198 188 205 208 208 210 215 214 196 202 217 222 233 243 253 264 275 284 290 294 298 299 302 304 306 309 311 311 311 312 313 314
274 270 260 241 226 218 213 210 208 207 205 198 195 193 189 189 193 198 194 185 203 217 223 232 242 249 259 271 281 287 293 296 298 298 301 305 307 307 308 310 311 312 310
278 273 265 250 226 217 211 208 206 204 202 201 199 194 186 187 193 193 194 199 207 214 219 228 239 251 259 269 277 283 288 293 294 296 300 303 306 309 309 309 310 310 309
273 266 253 243 228 216 211 206 203 203 202 199 190 195 197 190 188 191 197 204 204 204 207 217 234 245 252 263 275 283 287 291 294 297 299 301 304 308 311 313 315 316 315
267 262 255 244 229 222 216 205 201 201 200 195 189 188 191 187 188 191 194 195 193 198 204 214 235 252 259 267 271 276 280 285 289 290 295 302 307 312 314 315 317 318 318
265 257 250 241 226 216 209 201 199 199 196 193 192 191 189 185 185 187 185 182 184 195 205 218 235 254 269 280 280 279 276 281 279 273 278 290 302 309 312 316 318 320 319
265 254 245 234 222 213 207 200 195 194 194 193 192 190 186 181 181 180 176 175 179 197 214 225 240 259 274 283 287 288 293 300 305 299 278 291 298 303 309 315 320 323 323
266 252 240 227 217 209 203 197 192 191 191 191 189 186 183 181 179 175 171 172 180 197 215 230 247 264 280 287 291 300 308 314 316 320 312 296 306 311 318 318 322 326 327
Height
1446 1445 1444 1444 1446 1447 1448 1450 1452 1455 1456 1457 1458 1458 1458 1458 1457 1455 1453 1452 1449 1446 1444 1442 1438 1437 1433 1429 1425 1420 1415 1410 1400 1390 1387 1383 1380 1376 1372 1368 1363 1358 1353
1438 1437 1435 1435 1435 1436 1437 1439 1442 1444 1446 1447 1449 1449 1450 1450 1449 1448 1446 1444 1441 1438 1436 1434 1431 1429 1425 1421 1417 1412 1407 1402 1395 1384 1378 1375 1372 1368 1364 1359 1355 1350 1345
1430 1428 1426 1425 1424 1425 1426 1429 1431 1434 1436 1438 1439 1440 1441 1441 1441 1440 1438 1436 1433 1431 1429 1426 1423 1421 1417 1413 1409 1404 1398 1393 1388 1380 1372 1368 1363 1360 1356 1351 1347 1342 1338
1422 1419 1416 1415 1414 1415 1417 1418 1421 1423 1425 1428 1430 1431 1432 1433 1433 1432 1430 1428 1426 1423 1421 1419 1416 1413 1409 1405 1400 1395 1391 1385 1380 1374 1366 1360 1356 1353 1349 1344 1338 1334 1330
1413 1410 1407 1406 1405 1405 1406 1408 1411 1413 1416 1419 1421 1422 1424 1425 1425 1424 1423 1420 1418 1416 1414 1411 1409 1405 1402 1398 1394 1389 1384 1379 1373 1367 1360 1354 1349 1346 1342 1337 1332 1326 1322
1405 1401 1399 1397 1395 1395 1396 1398 1401 1404 1407 1410 1412 1414 1416 1417 1417 1417 1415 1413 1410 1408 1406 1404 1401 1398 1394 1390 1387 1383 1379 1373 1367 1361 1354 1348 1342 1339 1334 1330 1325 1321 1315
1397 1393 1390 1387 1385 1385 1386 1388 1390 1393 1397 1400 1403 1406 1407 1409 1409 1409 1408 1406 1403 1401 1399 1396 1393 1390 1387 1382 1378 1374 1370 1366 1362 1356 1348 1341 1336 1331 1327 1322 1318 1314 1309
1389 1384 1380 1377 1375 1375 1376 1378 1381 1384 1387 1391 1394 1397 1399 1401 1402 1401 1400 1398 1396 1394 1392 1389 1386 1382 1379 1375 1371 1366 1362 1358 1353 1347 1341 1334 1329 1324 1320 1315 1311 1306 1302
1380 1376 1372 1368 1366 1365 1365 1368 1371 1375 1378 1382 1386 1389 1391 1393 1394 1393 1393 1390 1388 1386 1385 1383 1380 1376 1372 1369 1366 1360 1355 1350 1346 1340 1335 1328 1322 1317 1313 1308 1304 1300 1295
1372 1367 1363 1360 1357 1356 1356 1359 1362 1366 1370 1374 1377 1380 1382 1384 1386 1385 1385 1383 1381 1379 1377 1376 1373 1370 1367 1364 1360 1355 1348 1343 1338 1332 1326 1321 1315 1310 1305 1302 1298 1294 1291
1364 1359 1355 1352 1349 1348 1348 1350 1353 1357 1361 1365 1369 1372 1374 1376 1377 1378 1377 1376 1374 1372 1371 1368 1366 1364 1361 1359 1355 1350 1344 1339 1332 1326 1320 1314 1308 1303 1299 1295 1291 1288 1285
1355 1350 1346 1343 1341 1339 1340 1341 1344 1348 1352 1356 1360 1363 1366 1368 1369 1370 1370 1369 1368 1367 1364 1362 1360 1358 1356 1353 1349 1344 1340 1334 1328 1321 1315 1309 1303 1297 1292 1288 1285 1281 1279
1347 1342 1338 1334 1332 1331 1331 1333 1336 1339 1343 1347 1351 1354 1358 1360 1362 1363 1363 1362 1362 1361 1359 1357 1355 1353 1350 1346 1343 1339 1334 1329 1323 1317 1310 1304 1299 1293 1287 1282 1278 1275 1272
1340 1335 1330 1326 1324 1323 1323 1325 1327 1330 1334 1338 1342 1345 1349 1353 1355 1356 1356 1356 1355 1354 1353 1351 1349 1347 1344 1341 1338 1334 1330 1325 1319 1313 1307 1301 1295 1289 1283 1278 1273 1269 1265
1333 1327 1323 1319 1316 1315 1315 1316 1318 1322 1326 1330 1334 1338 1342 1345 1348 1349 1350 1349 1349 1348 1347 1345 1343 1341 1339 1336 1333 1329 1325 1320 1315 1310 1304 1297 1291 1285 1279 1274 1270 1265 1262
1325 1321 1316 1312 1310 1308 1308 1310 1312 1316 1321 1325 1329 1332 1335 1339 1342 1342 1343 1344 1344 1343 1342 1340 1338 1336 1333 1331 1327 1324 1320 1316 1311 1306 1300 1294 1288 1282 1276 1271 1266 1262 1258
1319 1314 1309 1306 1303 1302 1302 1302 1305 1309 1313 1317 1321 1325 1329 1332 1335 1336 1338 1338 1338 1338 1337 1335 1333 1331 1329 1326 1323 1320 1316 1312 1308 1303 1297 1292 1286 1280 1274 1268 1263 1258 1254
1312 1307 1303 1299 1297 1295 1295 1296 1298 1301 1305 1309 1314 1318 1322 1326 1329 1331 1332 1333 1332 1332 1331 1330 1328 1326 1324 1322 1319 1316 1312 1308 1304 1299 1294 1289 1283 1277 1271 1266 1260 1255 1250
1305 1301 1296 1292 1290 1289 1289 1291 1293 1295 1299 1303 1308 1312 1317 1320 1323 1325 1326 1327 1327 1326 1326 1324 1323 1321 1320 1317 1315 1312 1309 1305 1301 1296 1291 1286 1281 1275 1269 1263 1258 1253 1248
1299 1294 1290 1286 1283 1282 1283 1284 1286 1289 1293 1297 1301 1306 1311 1315 1317 1319 1321 1321 1322 1321 1321 1320 1318 1317 1315 1313 1311 1308 1305 1301 1297 1293 1288 1283 1278 1273 1267 1261 1255 1250 1245
1292 1287 1284 1280 1277 1276 1277 1278 1280 1283 1287 1291 1296 1301 1305 1309 1311 1314 1316 1317 1317 1317 1316 1315 1314 1313 1311 1309 1307 1304 1301 1298 1294 1290 1285 1281 1275 1270 1264 1259 1253 1248 1242
1285 1281 1277 1274 1271 1270 1271 1272 1275 1278 1282 1287 1291 1296 1300 1304 1306 1309 1311 1312 1312 1312 1312 1311 1310 1309 1307 1305 1303 1301 1298 1295 1291 1287 1283 1278 1273 1268 1262 1256 1251 1246 1240
1278 1274 1270 1267 1265 1265 1266 1267 1270 1273 1277 1282 1287 1291 1295 1298 1302 1305 1307 1308 1308 1308 1307 1306 1306 1305 1303 1302 1300 1298 1295 1292 1288 1284 1280 1275 1271 1265 1260 1254 1249 1244 1238
1271 1267 1264 1261 1260 1260 1261 1263 1265 1269 1273 1277 1282 1287 1291 1294 1298 1301 1303 1304 1304 1304 1303 1303 1302 1301 1300 1298 1297 1295 1292 1289 1286 1282 1278 1274 1269 1264 1258 1253 1248 1242 1237
1265 1261 1258 1256 1255 1255 1257 1259 1262 1265 1269 1273 1278 1283 1287 1291 1294 1297 1299 1300 1301 1300 1300 1299 1298 1298 1297 1295 1294 1292 1289 1287 1284 1280 1276 1272 1267 1262 1257 1252 1247 1241 1236
1259 1256 1253 1251 1251 1251 1253 1255 1258 1262 1266 1270 1275 1279 1283 1287 1291 1294 1296 1297 1297 1297 1297 1296 1295 1295 1294 1293 1291 1289 1287 1284 1281 1278 1274 1270 1266 1261 1256 1251 1246 1241 1236